We konden geen weer-waarchuwingen ophalen. Ga rechtstreeks naar de Meteoalarm site : www.meteoalarm.eu en controleer daar .



Onweer radar Meer informatie blitzortung!


Regen radar Meer informatie rain snow radar


Bezoek onze andere website:

Template documentation
and downloads

And another site



15 daagse weersverwachting Frauenfeld (CH)

  • Overzicht
  • Per uur
  • 15 dagen
  • Extra
  • Vergelijk
  • Kaarten
  • Dagkaart
  • Meer »
  • Info
  • Statistieken
  • Directe link
    Temp 6h Neerslag Wind  
 06:26     20:31    Daglengte: 14:05 Vandaag
02:00
18°
 
2
08:00
17°
 
1
14:00
22°
 
2
20:00
21°
10.1 mm
2
 06:27     20:29    Daglengte: 14:02 Morgen
02:00
18°
17.0 mm
1
warningclass
08:00
18°
34.4 mm
1
14:00
21°
22.1 mm
2
20:00
19°
85.0 mm
3
warningclass
 06:29     20:27    Daglengte: 13:58 Zaterdag 20 Aug
02:00
16°
 
3
08:00
16°
 
2
14:00
22°
 
4
20:00
19°
122.6 mm
1
Locatie info
Region: Frauenfeld
Latitude: 47.5555°N
Longitude: 8.8972°E
432 masl
Postcode: 8500
Temp/Neerslag /Baro Onweer/Dauwpunt
    Temp Baro 1h Neerslag Dauwpunt Wind UV Bewolking  
 06:26     20:31    Daglengte: 14:05 Vandaag
01:00
19°
1012.8 hPa
48%
17.4°
1
Windvlaag: 1 m/s
50%
02:00
18°
1012.4 hPa
22%
17.3°
2
Windvlaag: -0.1 m/s
23%
03:00
18°
1012.1 hPa
15%
17.1°
2
Windvlaag: -1.1 m/s
22%
04:00
17°
1011.8 hPa
19%
16.8°
1
Windvlaag: -1.3 m/s
39%
05:00
17°
1011.5 hPa
22%
16.3°
1
Windvlaag: -0.8 m/s
51%
06:00
16°
1011.3 hPa
17%
16.0°
1
Windvlaag: -0.7 m/s
58%
07:00
16°
1011.4 hPa
14%
15.7°
1
Windvlaag: -0.4 m/s
62%
08:00
17°
1011.7 hPa
14%
15.8°
1
Windvlaag: -0.1 m/s
86%
09:00
18°
1011.7 hPa
17%
16.1°
1
Windvlaag: 0.1 m/s
86%
10:00
19°
1011.7 hPa
14%
16.7°
1
Windvlaag: -0.2 m/s
86%
11:00
20°
1011.9 hPa
16%
18.1°
1
Windvlaag: -0.5 m/s
86%
12:00
21°
1011.7 hPa
22%
18.4°
1
Windvlaag: 0.1 m/s
86%
13:00
22°
1011.4 hPa
25%
18.2°
2
Windvlaag: 0.5 m/s
85%
14:00
22°
1011.0 hPa
81%
18.6°
2
Windvlaag: 0 m/s
86%
15:00
22°
1010.9 hPa
81%
19.8°
2
Windvlaag: -0.3 m/s
68%
16:00
23°
1010.7 hPa
80%
19.4°
2
Windvlaag: 0.2 m/s
84%
17:00
23°
1010.5 hPa
82%
18.8°
1
Windvlaag: 1.6 m/s
67%
18:00
22°
1010.6 hPa 4.5 mm
82%
19.3°
2
Windvlaag: 2.1 m/s
84%
19:00
22°
1010.7 hPa
82%
18.6°
2
Windvlaag: 3.2 m/s
86%
20:00
21°
1011.0 hPa 5.6 mm
82%
18.6°
2
Windvlaag: 3.9 m/s
85%
21:00
20°
1011.6 hPa
82%
18.5°
2
Windvlaag: 3 m/s
86% warningclass
22:00
19°
1012.0 hPa 5.8 mm
82%
18.2°
2
Windvlaag: 2.5 m/s
86% warningclass
23:00
18°
1012.5 hPa 5.8 mm
82%
17.7°
1
Windvlaag: 2 m/s
78%
 06:27     20:29    Daglengte: 14:02 Morgen
00:00
18°
1012.6 hPa
39%
17.7°
1
Windvlaag: 2.2 m/s
73%
01:00
18°
1012.6 hPa
82%
17.7°
1
Windvlaag: 1.7 m/s
84%
02:00
18°
1012.7 hPa 5.4 mm
82%
17.7°
1
Windvlaag: 2.6 m/s
82% warningclass
03:00
18°
1012.4 hPa 5.3 mm
82%
17.6°
2
Windvlaag: 2.2 m/s
86%
04:00
18°
1012.5 hPa 5.8 mm
82%
17.3°
2
Windvlaag: 2.3 m/s
86%
05:00
18°
1012.5 hPa 5.6 mm
82%
17.2°
1
Windvlaag: 1.9 m/s
70%
06:00
17°
1012.6 hPa 5.6 mm
82%
17.0°
1
Windvlaag: 2.7 m/s
86%
07:00
18°
1013.1 hPa 5.9 mm
82%
17.3°
1
Windvlaag: 2.6 m/s
86% warningclass
08:00
18°
1013.3 hPa 6.2 mm
78%
17.3°
1
Windvlaag: 0.1 m/s
86%
09:00
18°
1013.4 hPa
72%
17.5°
1
Windvlaag: -0.3 m/s
84%
10:00
19°
1013.9 hPa
40%
18.1°
2
Windvlaag: -0.6 m/s
50%
11:00
19°
1014.3 hPa 9.6 mm
81%
18.3°
2
Windvlaag: -0.8 m/s
86%
12:00
19°
1014.5 hPa 12.5 mm
82%
18.1°
2
Windvlaag: -1.1 m/s
86%
13:00
20°
1014.5 hPa
80%
18.0°
2
Windvlaag: -0.3 m/s
86%
14:00
21°
1014.4 hPa
82%
18.2°
2
Windvlaag: 2 m/s
84%
15:00
21°
1014.5 hPa 15.4 mm
80%
17.8°
2
Windvlaag: 2.9 m/s
41%
16:00
21°
1014.5 hPa
81%
18.0°
2
Windvlaag: 3.3 m/s
22%
17:00
20°
1014.6 hPa 31.4 mm
100%
20.0°
3
Windvlaag: 2.9 m/s
87%
18:00
20°
1014.8 hPa 19.7 mm
100%
19.0°
4
Windvlaag: 1.1 m/s
88% warningclass
19:00
20°
1015.3 hPa 18.6 mm
100%
18.0°
3
Windvlaag: -2.1 m/s
86% warningclass
20:00
19°
1015.7 hPa
90%
18.2°
3
Windvlaag: -0.1 m/s
76%
21:00
18°
1016.3 hPa
34%
17.3°
3
Windvlaag: 0.3 m/s
71%
22:00
18°
1016.8 hPa
32%
16.4°
3
Windvlaag: 3 m/s
50%
23:00
18°
1017.4 hPa
44%
15.6°
3
Windvlaag: 3.2 m/s
47%
 06:29     20:27    Daglengte: 13:58 Zaterdag 20 Aug
00:00
17°
1017.6 hPa
35%
15.1°
3
Windvlaag: 3.6 m/s
42%
01:00
17°
1017.8 hPa
22%
14.4°
3
Windvlaag: 3.9 m/s
49%
02:00
16°
1017.6 hPa
22%
13.8°
3
Windvlaag: 3.7 m/s
42%
03:00
16°
1017.5 hPa
21%
13.4°
2
Windvlaag: 3.7 m/s
52%
04:00
16°
1017.5 hPa
21%
13.1°
3
Windvlaag: 3.3 m/s
53%
05:00
15°
1017.5 hPa
21%
13.0°
3
Windvlaag: 3.2 m/s
60%
06:00
15°
1017.5 hPa
21%
12.7°
3
Windvlaag: 3.1 m/s
58%
07:00
15°
1018.0 hPa
21%
12.7°
2
Windvlaag: 3 m/s
61%
08:00
16°
1018.4 hPa
22%
12.9°
2
Windvlaag: 2.5 m/s
60%
09:00
18°
1018.4 hPa
27%
13.5°
2
Windvlaag: 2.9 m/s
74%
10:00
19°
1018.4 hPa
23%
14.3°
2
Windvlaag: 2.8 m/s
63%
11:00
20°
1018.5 hPa
26%
14.7°
3
Windvlaag: 2.6 m/s
86%
12:00
21°
1018.6 hPa
74%
16.6°
3
Windvlaag: 3.2 m/s
59%
13:00
21°
1018.6 hPa
42%
16.1°
4
Windvlaag: 3.5 m/s
71%
14:00
22°
1018.3 hPa
51%
15.6°
4
Windvlaag: 3.6 m/s
46%
15:00
22°
1018.1 hPa 30.3 mm
97%
14.2°
3
Windvlaag: 4.4 m/s
49%
16:00
22°
1017.8 hPa
100%
14.3°
4
Windvlaag: 4.7 m/s
51%
17:00
22°
1017.7 hPa
100%
14.9°
3
Windvlaag: 3.6 m/s
49%
18:00
21°
1018.0 hPa 30.7 mm
100%
13.9°
2
Windvlaag: 3.2 m/s
48%
19:00
20°
1018.4 hPa 31.0 mm
100%
13.2°
1
Windvlaag: 3 m/s
49% warningclass
20:00
19°
1018.7 hPa 30.7 mm
100%
14.9°
1
Windvlaag: 2.1 m/s
26%
21:00
18°
1019.1 hPa
43%
13.8°
1
Windvlaag: 1.1 m/s
15%
22:00
17°
1019.2 hPa
41%
13.4°
1
Windvlaag: 1.1 m/s
7%
23:00
17°
1019.2 hPa 30.6 mm
89%
13.2°
1
Windvlaag: 0.8 m/s
37%
 06:30     20:25    Daglengte: 13:55 Zondag 21 Aug
00:00
16°
1019.1 hPa 30.5 mm
92%
13.2°
1
Windvlaag: 0.7 m/s
10%
Temp/Neerslag /Baro Onweer/Dauwpunt
    Temp Baro Neerslag Dauwpunt Wind Bewolking  
 06:26     20:31    Daglengte: 14:05 Vandaag
02:00
18°
1012.4 hPa   17.3°
2
23%
05:00
17°
1011.5 hPa   16.3°
1
51%
08:00
17°
1011.7 hPa   15.8°
1
86%
11:00
20°
1011.9 hPa   18.1°
1
86%
14:00
22°
1011.0 hPa   18.6°
2
86%
17:00
23°
1010.5 hPa   18.8°
1
67%
20:00
21°
1011.0 hPa 10.1 mm 18.6°
2
85%
23:00
18°
1012.5 hPa 11.6 mm 17.7°
1
78%
 06:27     20:29    Daglengte: 14:02 Morgen
02:00
18°
1012.7 hPa 5.4 mm 17.7°
1
82% warningclass
05:00
18°
1012.5 hPa 16.7 mm 17.2°
1
70%
08:00
18°
1013.3 hPa 17.7 mm 17.3°
1
86%
11:00
19°
1014.3 hPa 9.6 mm 18.3°
2
86%
14:00
21°
1014.4 hPa 12.5 mm 18.2°
2
84%
17:00
20°
1014.6 hPa 46.8 mm 20.0°
3
87%
20:00
19°
1015.7 hPa 38.3 mm 18.2°
3
76% warningclass
23:00
18°
1017.4 hPa   15.6°
3
47%
 06:29     20:27    Daglengte: 13:58 Zaterdag 20 Aug
02:00
16°
1017.6 hPa   13.8°
3
42%
05:00
15°
1017.5 hPa   13.0°
3
60%
08:00
16°
1018.4 hPa   12.9°
2
60%
11:00
20°
1018.5 hPa   14.7°
3
86%
14:00
22°
1018.3 hPa   15.6°
4
46%
17:00
22°
1017.7 hPa 30.3 mm 14.9°
3
49%
20:00
19°
1018.7 hPa 92.3 mm 14.9°
1
26%
23:00
17°
1019.2 hPa 30.6 mm 13.2°
1
37%
 06:30     20:25    Daglengte: 13:55 Zondag 21 Aug
02:00
15°
1018.8 hPa 91.0 mm 12.6°
1
8%
05:00
13°
1017.6 hPa 57.4 mm 11.9°
1
1%
08:00
14°
1017.7 hPa 57.4 mm 13.3°
0
1%
11:00
20°
1016.4 hPa 57.5 mm 15.3°
1
0%
14:00
23°
1015.0 hPa 58.6 mm 16.3°
1
1%
17:00
23°
1014.1 hPa 59.2 mm 14.5°
2
1%
20:00
17°
1015.5 hPa 61.7 mm 15.0°
1
1%
23:00
15°
1016.8 hPa 63.5 mm 14.5°
1
1%
 06:31     20:24    Daglengte: 13:53 Maandag 22 Aug
02:00
14°
1016.3 hPa 63.5 mm 12.7°
0
1%
05:00
13°
1016.6 hPa 63.5 mm 11.8°
0
1%
08:00
14°
1017.2 hPa 63.5 mm 13.1°
0
1%
11:00
20°
1016.7 hPa 63.5 mm 13.7°
2
0%
14:00
24°
1015.4 hPa 63.5 mm 13.6°
3
0%
17:00
25°
1014.7 hPa 63.5 mm 13.4°
4
0%
20:00
19°
1015.8 hPa 63.5 mm 13.3°
2
1%
23:00
15°
1016.9 hPa 63.5 mm 11.7°
1
0%
 06:33     20:22    Daglengte: 13:49 Dinsdag 23 Aug
02:00
13°
1017.6 hPa 63.5 mm 10.6°
1
0%
05:00
11°
1018.4 hPa 63.5 mm 10.1°
1
0%
08:00
14°
1018.9 hPa 63.5 mm 11.3°
1
0%
11:00
20°
1018.0 hPa 63.5 mm 13.0°
3
0%
14:00
25°
1016.6 hPa 63.5 mm 10.9°
4
0%
17:00
25°
1015.9 hPa 63.5 mm 11.7°
4
0%
20:00
18°
1016.7 hPa 63.5 mm 12.0°
2
0%
23:00
14°
1017.9 hPa 63.5 mm 10.8°
1
0%
 06:34     20:20    Daglengte: 13:46 Woensdag 24 Aug
02:00
12°
1017.9 hPa 63.5 mm 9.9°
1
0%
05:00
11°
1018.1 hPa 63.5 mm 9.3°
1
0%
08:00
13°
1018.5 hPa 63.5 mm 10.2°
1
0%
11:00
20°
1017.7 hPa 63.5 mm 12.3°
3
0%
14:00
25°
1016.3 hPa 63.5 mm 12.3°
3
0%
17:00
25°
1015.5 hPa 63.5 mm 12.3°
3
0%
20:00
19°
1016.2 hPa 63.5 mm 13.8°
2
0%
23:00
15°
1017.7 hPa   12.7°
1
0%
 06:35     20:18    Daglengte: 13:43 Donderdag 25 Aug
02:00
13°
1017.6 hPa 127.1 mm 11.6°
1
0%
08:00
14°
1018.5 hPa 127.1 mm 12.0°
1
0%
14:00
26°
1016.3 hPa 127.1 mm 15.4°
1
0%
20:00
20°
1015.6 hPa 127.1 mm 14.9°
0
0%
 06:37     20:16    Daglengte: 13:39 Vrijdag 26 Aug
02:00
15°
1017.1 hPa 127.1 mm 12.7°
1
0%
08:00
16°
1016.9 hPa 127.1 mm 13.7°
0
0%
14:00
28°
1014.2 hPa 127.1 mm 16.6°
1
1%
20:00
22°
1013.3 hPa 127.1 mm 15.8°
1
0%
 06:38     20:14    Daglengte: 13:36 Zaterdag 27 Aug
02:00
17°
1014.8 hPa 127.1 mm 14.0°
1
0%
08:00
18°
1016.3 hPa 127.2 mm 15.1°
1
1%
14:00
29°
1015.0 hPa 127.4 mm 17.4°
1
1%
20:00
21°
1018.6 hPa 0.9 mm 15.7°
1
49%
 06:39     20:12    Daglengte: 13:33 Zondag 28 Aug
02:00
16°
1019.7 hPa 0.7 mm 14.1°
0
55%
08:00
17°
1020.0 hPa 0.6 mm 14.7°
0
59%
14:00
26°
1018.9 hPa 0.3 mm 15.9°
1
57%
20:00
21°
1019.5 hPa 0.8 mm 16.1°
1
46%
 06:41     20:10    Daglengte: 13:29 Maandag 29 Aug
02:00
17°
1020.5 hPa 0.4 mm 14.5°
0
58%
08:00
16°
1020.5 hPa 0.5 mm 14.7°
0
51%
14:00
26°
1019.3 hPa 0.7 mm 16.3°
1
50%
20:00
21°
1019.3 hPa 0.7 mm 15.6°
1
57%
 06:42     20:08    Daglengte: 13:26 Dinsdag 30 Aug
02:00
16°
1020.3 hPa 0.5 mm 13.6°
0
62%
08:00
16°
1020.1 hPa 0.3 mm 13.9°
0
53%
14:00
25°
1018.5 hPa 0.5 mm 15.5°
1
53%
20:00
20°
1018.5 hPa 1.4 mm 14.8°
0
56%
 06:43     20:06    Daglengte: 13:23 Woensdag 31 Aug
02:00
15°
1019.4 hPa 0.7 mm 13.2°
0
51%
08:00
15°
1019.0 hPa 0.4 mm 13.4°
0
48%
14:00
25°
1017.3 hPa 0.4 mm 14.5°
1
42%
20:00
19°
1017.6 hPa 1.8 mm 14.7°
1
51%
 06:45     20:04    Daglengte: 13:19 Donderdag 01 Sep
02:00
15°
1018.9 hPa 1.2 mm 12.5°
0
50%
08:00
14°
1019.0 hPa 0.3 mm 12.4°
0
48%
14:00
24°
1017.5 hPa 0.7 mm 13.3°
1
44%
20:00
18°
1018.0 hPa 0.6 mm 13.4°
1
44%
  CAPE Lifted Index Hail Supercell Tornado SRH 3km CL BTM PRES CL TOP PRES Swiss DWD icon SMHI TS
 06:26     20:31    Daglengte: 14:05 Vandaag
01:00 0 J/kg -1.3 K 0 % 0 % 0 % 0 m²/s² 0 0 -0.61 3
02:00 0 J/kg -1.6 K 0 % 0 % 0 % 0 m²/s² 0 0 -0.88 2
03:00 0 J/kg -0.6 K 0 % 0 % 0 % 0 m²/s² 0 0 0.69 3
04:00 0 J/kg -0.2 K 0 % 0 % 0 % 0 m²/s² 0 0 0.19 3
05:00 3 J/kg -0.1 K 0 % 0 % 0 % 0 m²/s² 0 0 0.53 3
06:00 0 J/kg -1.0 K 0 % 0 % 0 % 0 m²/s² 0 0 -0.19 45
07:00 0 J/kg -0.7 K 0 % 0 % 0 % 0 m²/s² 0 0 0.53 45
08:00 0 J/kg 0.3 K 0 % 0 % 0 % 0 m²/s² 0 0 1.68 3
09:00 0 J/kg 0.0 K 0 % 0 % 0 % 0 m²/s² 0 0 0.78 3
10:00 57 J/kg -0.2 K 0 % 0 % 0 % 0 m²/s² 0 0 0.16 3
11:00 325 J/kg -1.8 K 0 % 0 % 0 % 0 m²/s² 0 0 -0.9 3
12:00 389 J/kg -1.7 K 0 % 0 % 0 % 0 m²/s² 0 0 -1.16 3
13:00 477 J/kg -2.0 K 0 % 0 % 0 % 0 m²/s² 0 0 -0.56 3
14:00 480 J/kg -1.7 K 0 % 0 % 0 % 0 m²/s² 0 0 -0.08 3
15:00 443 J/kg -1.9 K 0 % 0 % 0 % 0 m²/s² 0 0 -1.36 3
16:00 453 J/kg -2.5 K 0 % 0 % 0 % 0 m²/s² 0 0 -2.14 3
17:00 428 J/kg -2.0 K 0 % 0 % 0 % 0 m²/s² 0 0 -1.82 80
18:00 243 J/kg -1.0 K 0 % 0 % 0 % 0 m²/s² 0 0 -0.91 80
19:00 273 J/kg -1.5 K 0 % 0 % 0 % 0 m²/s² 0 0 -1.11 3
20:00 296 J/kg -1.4 K 0 % 0 % 0 % 0 m²/s² 0 0 -1.31 80
21:00 115 J/kg -0.9 K 0 % 0 % 0 % 0 m²/s² 0 0 -0.9 95
22:00 16 J/kg -0.1 K 0 % 0 % 0 % 0 m²/s² 0 0 0.11 95
23:00 27 J/kg -0.4 K 0 % 0 % 0 % 0 m²/s² 0 0 -0.04 80
 06:27     20:29    Daglengte: 14:02 Morgen
00:00 18 J/kg -0.1 K 0 % 0 % 0 % 0 m²/s² 0 0 1.34 45
01:00 47 J/kg 0.1 K 0 % 0 % 0 % 0 m²/s² 0 0 1.6 45
02:00 103 J/kg -0.4 K 0 % 0 % 0 % 0 m²/s² 0 0 0.92 95
03:00 0 J/kg -0.1 K 0 % 0 % 0 % 0 m²/s² 0 0 2.48 80
04:00 77 J/kg -1.5 K 0 % 0 % 0 % 0 m²/s² 0 0 -0.18 80
05:00 61 J/kg -1.4 K 0 % 0 % 0 % 0 m²/s² 0 0 0.16 80
06:00 18 J/kg -1.0 K 0 % 0 % 0 % 0 m²/s² 0 0 1.07 80
07:00 78 J/kg -1.7 K 0 % 0 % 0 % 0 m²/s² 0 0 -0.8 95
08:00 84 J/kg -1.8 K 0 % 0 % 0 % 0 m²/s² 0 0 -1.08 80
09:00 56 J/kg -2.1 K 0 % 0 % 0 % 0 m²/s² 0 0 -2.07 3
10:00 52 J/kg -1.7 K 0 % 0 % 0 % 0 m²/s² 0 0 -1.58 3
11:00 182 J/kg -1.1 K 0 % 0 % 0 % 0 m²/s² 0 0 -1.07 80
12:00 135 J/kg -0.8 K 0 % 0 % 0 % 0 m²/s² 0 0 -0.71 80
13:00 110 J/kg -1.4 K 0 % 0 % 0 % 0 m²/s² 0 0 -1.37 3
14:00 218 J/kg -1.3 K 0 % 0 % 0 % 0 m²/s² 0 0 -0.73 3
15:00 270 J/kg -1.2 K 0 % 0 % 0 % 0 m²/s² 0 0 -1.2 80
16:00 221 J/kg -1.1 K 0 % 0 % 0 % 0 m²/s² 0 0 -0.98 2
17:00 322 J/kg -2.3 K 0 % 0 % 0 % 0 m²/s² 0 0 -2.3 3
18:00 418 J/kg -2.8 K 0 % 0 % 0 % 0 m²/s² 0 0 -2.77 80
19:00 659 J/kg -2.9 K 0 % 0 % 0 % 0 m²/s² 0 0 -2.51 80
20:00 523 J/kg -2.8 K 0 % 0 % 0 % 0 m²/s² 0 0 -2.53 2
21:00 228 J/kg -1.0 K 0 % 0 % 0 % 0 m²/s² 0 0 -0.43 2
22:00 252 J/kg -0.6 K 0 % 0 % 0 % 0 m²/s² 0 0 0.36 2
23:00 195 J/kg 0.0 K 0 % 0 % 0 % 0 m²/s² 0 0 1.41 2
 06:29     20:27    Daglengte: 13:58 Zaterdag 20 Aug
00:00 49 J/kg 1.0 K 0 % 0 % 0 % 0 m²/s² 0 0 3.46 1
01:00 0 J/kg 1.2 K 0 % 0 % 0 % 0 m²/s² 0 0 4.11 1
02:00 0 J/kg 1.4 K 0 % 0 % 0 % 0 m²/s² 0 0 5.03 1
03:00 0 J/kg 1.7 K 0 % 0 % 0 % 0 m²/s² 0 0 3.8 1
04:00 0 J/kg 1.6 K 0 % 0 % 0 % 0 m²/s² 0 0 2.98 1
05:00 0 J/kg 1.7 K 0 % 0 % 0 % 0 m²/s² 0 0 3.08 0
06:00 0 J/kg 1.3 K 0 % 0 % 0 % 0 m²/s² 0 0 2.8 1
07:00 0 J/kg 0.8 K 0 % 0 % 0 % 0 m²/s² 0 0 2.24 1
08:00 0 J/kg 0.6 K 0 % 0 % 0 % 0 m²/s² 0 0 1.35 45
09:00 0 J/kg 0.8 K 0 % 0 % 0 % 0 m²/s² 0 0 1.16 2
10:00 3 J/kg 0.5 K 0 % 0 % 0 % 0 m²/s² 0 0 1.07 2
11:00 190 J/kg -0.7 K 0 % 0 % 0 % 0 m²/s² 0 0 -0.13 3
12:00 416 J/kg -1.7 K 0 % 0 % 0 % 0 m²/s² 0 0 -1.19 3
13:00 416 J/kg -1.6 K 0 % 0 % 0 % 0 m²/s² 0 0 -1.12 3
14:00 325 J/kg -1.2 K 0 % 0 % 0 % 0 m²/s² 0 0 -0.63 3
15:00 283 J/kg -1.0 K 0 % 0 % 0 % 0 m²/s² 0 0 -0.37 80
16:00 425 J/kg -1.5 K 0 % 0 % 0 % 0 m²/s² 0 0 -0.78 3
17:00 573 J/kg -2.2 K 0 % 0 % 0 % 0 m²/s² 0 0 -1.48 3
18:00 674 J/kg -2.4 K 0 % 0 % 0 % 0 m²/s² 0 0 -1.68 80
19:00 698 J/kg -2.5 K 0 % 0 % 0 % 0 m²/s² 0 0 -1.12 95
20:00 698 J/kg -2.3 K 0 % 0 % 0 % 0 m²/s² 0 0 -0.26 80
21:00 406 J/kg -1.6 K 0 % 0 % 0 % 0 m²/s² 0 0 1.94 2
22:00 271 J/kg -1.1 K 0 % 0 % 0 % 0 m²/s² 0 0 3.22 2
23:00 68 J/kg -0.4 K 0 % 0 % 0 % 0 m²/s² 0 0 4.91 80
 06:30     20:25    Daglengte: 13:55 Zondag 21 Aug
00:00 17 J/kg 0.1 K 0 % 0 % 0 % 0 m²/s² 0 0 6.37 80
Temp Baro Wind Neerslag
  EWN Forecast EWN WRFDA DWD ICON FMI HIRLAM MET Norway GFS
 06:26     20:31    Daglengte: 14:05 Vandaag
02:00 18.3° 1012.4 hPa 1.7 m/s 0.0 mm 17.4° 1012.0 hPa 2.7 m/s 24.8 mm 17.7° 1013.6 hPa 0.7 m/s -1.3 mm 18.5° 1012.0 hPa 1.8 m/s 0.0 mm 16.8° 1014.2 hPa 1.8 m/s
05:00 16.6° 1011.5 hPa 1.3 m/s 0.0 mm 16.4° 1011.0 hPa 3.0 m/s 47.3 mm 16.1° 1012.7 hPa 0.8 m/s 0.0 mm 16.4° 1010.9 hPa 1.3 m/s 0.0 mm 17.0° 1013.4 hPa 1.2 m/s
08:00 16.9° 1011.7 hPa 0.9 m/s 0.0 mm 16.7° 1010.9 hPa 1.7 m/s 47.8 mm 16.5° 1013.1 hPa 0.6 m/s 0.0 mm 16.7° 1011.0 hPa 1.6 m/s 0.0 mm 17.3° 1014.0 hPa 0.5 m/s
11:00 20.1° 1011.9 hPa 1.1 m/s 0.0 mm 20.4° 1011.7 hPa 1.3 m/s 48.1 mm 20.4° 1013.4 hPa 1.2 m/s 0.0 mm 18.5° 1011.5 hPa 0.8 m/s 0.0 mm 19.4° 1013.6 hPa 1.2 m/s
14:00 22.2° 1011.0 hPa 1.8 m/s 0.0 mm 23.6° 1008.6 hPa 2.7 m/s 48.2 mm 21.6° 1012.5 hPa 0.6 m/s 0.0 mm 21.8° 1011.0 hPa 2.8 m/s 0.0 mm 21.4° 1012.2 hPa 1.8 m/s
17:00 22.7° 1010.5 hPa 1.4 m/s 0.0 mm 23.9° 1008.4 hPa 2.8 m/s 48.4 mm 21.2° 1011.9 hPa 0.2 m/s 0.7 mm 22.5° 1009.6 hPa 1.1 m/s 0.0 mm 19.5° 1011.8 hPa 1.5 m/s
20:00 20.7° 1011.0 hPa 2.1 m/s 10.1 mm 18.6° 1008.7 hPa 1.9 m/s 67.3 mm 18.9° 1012.3 hPa 0.9 m/s 1.4 mm 21.9° 1010.0 hPa 2.1 m/s 0.0 mm 18.0° 1011.9 hPa 2.2 m/s
23:00 18.4° 1012.5 hPa 1.3 m/s 11.6 mm 16.4° 1009.3 hPa 1.4 m/s 72.6 mm 17.7° 1013.3 hPa 1.0 m/s 5.4 mm 20.3° 1010.9 hPa 1.1 m/s 0.0 mm 17.0° 1013.0 hPa 1.4 m/s
 06:27     20:29    Daglengte: 14:02 Morgen
02:00 17.8° 1012.7 hPa 1.3 m/s 5.4 mm 16.1° 1009.4 hPa 1.7 m/s 73.5 mm 17.4° 1013.5 hPa 1.1 m/s 0.8 mm 19.2° 1010.8 hPa 1.1 m/s 0.0 mm 16.7° 1012.8 hPa 0.7 m/s
05:00 17.6° 1012.5 hPa 1.1 m/s 16.7 mm 16.4° 1008.9 hPa 0.2 m/s 73.8 mm 17.3° 1013.3 hPa 0.9 m/s 1.8 mm 18.1° 1010.8 hPa 1.2 m/s 0.0 mm 16.7° 1012.2 hPa 1.1 m/s
08:00 17.9° 1013.3 hPa 1.2 m/s 17.7 mm 17.0° 1009.0 hPa 1.5 m/s 77.6 mm 17.3° 1014.8 hPa 1.0 m/s 2.3 mm 18.6° 1011.9 hPa 0.9 m/s 0.0 mm 16.6° 1013.0 hPa 1.5 m/s
11:00 19.5° 1014.3 hPa 1.8 m/s 9.6 mm 17.4° 1010.8 hPa 1.0 m/s 109.6 mm 19.9° 1015.6 hPa 1.9 m/s 0.2 mm 19.9° 1013.3 hPa 1.4 m/s 0.0 mm 17.5° 1014.7 hPa 1.7 m/s
14:00 20.6° 1014.4 hPa 2.1 m/s 12.5 mm 17.2° 1012.1 hPa 2.8 m/s 197.9 mm 21.3° 1016.3 hPa 2.9 m/s 0.4 mm 21.4° 1013.4 hPa 0.8 m/s 0.0 mm 18.1° 1015.2 hPa 3.3 m/s
17:00 20.1° 1014.6 hPa 3.1 m/s 46.8 mm 17.7° 1013.9 hPa 2.9 m/s 246.9 mm 21.9° 1016.0 hPa 3.0 m/s 0.7 mm 17.3° 1016.1 hPa 3.5 m/s
20:00 19.0° 1015.7 hPa 2.8 m/s 38.3 mm 18.3° 1014.7 hPa 2.9 m/s 268.3 mm 19.6° 1017.3 hPa 2.2 m/s 1.3 mm 16.8° 1016.5 hPa 2.4 m/s
23:00 17.7° 1017.4 hPa 2.9 m/s 0.0 mm 16.5° 1015.9 hPa 3.1 m/s 269.5 mm 18.3° 1018.2 hPa 1.0 m/s 0.0 mm 15.7° 1018.0 hPa 1.9 m/s
 06:29     20:27    Daglengte: 13:58 Zaterdag 20 Aug
02:00 16.5° 1017.6 hPa 2.5 m/s 0.0 mm 14.2° 1015.6 hPa 2.4 m/s 269.5 mm 16.7° 1018.4 hPa 1.1 m/s 0.0 mm 15.2° 1017.8 hPa 1.8 m/s
05:00 15.3° 1017.5 hPa 2.7 m/s 0.0 mm 13.4° 1016.0 hPa 3.1 m/s 269.5 mm 15.2° 1018.3 hPa 0.9 m/s 0.0 mm 14.8° 1017.6 hPa 1.2 m/s
08:00 16.1° 1018.4 hPa 2.1 m/s 0.0 mm 16.0° 1017.0 hPa 2.6 m/s 269.5 mm 15.4° 1019.4 hPa 0.7 m/s 0.0 mm 15.9° 1017.9 hPa 0.9 m/s
11:00 20.3° 1018.5 hPa 2.8 m/s 0.0 mm 20.4° 1017.6 hPa 1.8 m/s 269.5 mm 20.8° 1019.0 hPa 3.5 m/s 0.0 mm 21.0° 1017.2 hPa 2.0 m/s
14:00 21.9° 1018.3 hPa 3.8 m/s 0.0 mm 21.2° 1017.4 hPa 3.1 m/s 271.1 mm 22.0° 1018.5 hPa 3.9 m/s 0.0 mm 21.6° 1017.5 hPa 2.9 m/s
17:00 21.9° 1017.7 hPa 3.1 m/s 30.3 mm 22.0° 1016.6 hPa 2.7 m/s 271.6 mm 21.8° 1018.0 hPa 3.2 m/s 0.3 mm 21.0° 1017.2 hPa 2.2 m/s
20:00 19.0° 1018.7 hPa 0.7 m/s 92.3 mm 19.3° 1016.6 hPa 1.3 m/s 271.9 mm 18.9° 1019.3 hPa 0.6 m/s 2.4 mm 17.8° 1017.7 hPa 0.3 m/s
23:00 16.6° 1019.2 hPa 0.7 m/s 30.6 mm 15.7° 1016.8 hPa 0.2 m/s 272.0 mm 16.8° 1019.7 hPa 0.8 m/s 0.5 mm 14.7° 1019.1 hPa 0.8 m/s
 06:30     20:25    Daglengte: 13:55 Zondag 21 Aug
02:00 15.1° 1018.8 hPa 1.0 m/s 91.0 mm 13.7° 1016.8 hPa 1.5 m/s 272.0 mm 15.5° 1019.3 hPa 0.9 m/s 0.4 mm 13.5° 1018.6 hPa 1.1 m/s
05:00 12.7° 1017.6 hPa 0.8 m/s 57.4 mm 12.7° 1017.6 hPa 0.8 m/s 57.4 mm
08:00 14.5° 1017.7 hPa 0.3 m/s 57.4 mm 14.5° 1017.7 hPa 0.3 m/s 57.4 mm
11:00 20.3° 1016.4 hPa 1.0 m/s 57.5 mm 20.3° 1016.4 hPa 1.0 m/s 57.5 mm
14:00 22.6° 1015.0 hPa 1.0 m/s 58.6 mm 22.6° 1015.0 hPa 1.0 m/s 58.6 mm
17:00 23.1° 1014.1 hPa 1.9 m/s 59.2 mm 23.1° 1014.1 hPa 1.9 m/s 59.2 mm
20:00 17.4° 1015.5 hPa 0.9 m/s 61.7 mm 17.4° 1015.5 hPa 0.9 m/s 61.7 mm
23:00 15.3° 1016.8 hPa 1.5 m/s 63.5 mm 15.3° 1016.8 hPa 1.5 m/s 63.5 mm
 06:31     20:24    Daglengte: 13:53 Maandag 22 Aug
02:00 14.0° 1016.3 hPa 0.1 m/s 63.5 mm 14.0° 1016.3 hPa 0.1 m/s 63.5 mm
05:00 13.1° 1016.6 hPa 0.5 m/s 63.5 mm 13.1° 1016.6 hPa 0.5 m/s 63.5 mm
08:00 14.4° 1017.2 hPa 0.5 m/s 63.5 mm 14.4° 1017.2 hPa 0.5 m/s 63.5 mm
11:00 19.9° 1016.7 hPa 2.3 m/s 63.5 mm 19.9° 1016.7 hPa 2.3 m/s 63.5 mm
14:00 24.3° 1015.4 hPa 3.3 m/s 63.5 mm 24.3° 1015.4 hPa 3.3 m/s 63.5 mm
17:00 24.8° 1014.7 hPa 3.9 m/s 63.5 mm 24.8° 1014.7 hPa 3.9 m/s 63.5 mm
20:00 19.0° 1015.8 hPa 2.2 m/s 63.5 mm 19.0° 1015.8 hPa 2.2 m/s 63.5 mm
23:00 14.7° 1016.9 hPa 1.0 m/s 63.5 mm 14.7° 1016.9 hPa 1.0 m/s 63.5 mm
 06:33     20:22    Daglengte: 13:49 Dinsdag 23 Aug
02:00 12.8° 1017.6 hPa 0.8 m/s 63.5 mm 12.8° 1017.6 hPa 0.8 m/s 63.5 mm
05:00 11.5° 1018.4 hPa 1.0 m/s 63.5 mm 11.5° 1018.3 hPa 1.0 m/s 63.5 mm
08:00 13.6° 1018.9 hPa 0.9 m/s 63.5 mm 13.6° 1018.9 hPa 0.9 m/s 63.5 mm
11:00 20.4° 1018.0 hPa 3.1 m/s 63.5 mm 20.4° 1018.0 hPa 3.1 m/s 63.5 mm
14:00 24.8° 1016.6 hPa 4.0 m/s 63.5 mm 24.8° 1016.6 hPa 4.0 m/s 63.5 mm
17:00 24.7° 1015.9 hPa 4.0 m/s 63.5 mm 24.7° 1015.9 hPa 4.0 m/s 63.5 mm
20:00 18.1° 1016.7 hPa 2.1 m/s 63.5 mm 18.1° 1016.7 hPa 2.1 m/s 63.5 mm
23:00 14.0° 1017.9 hPa 1.1 m/s 63.5 mm 14.0° 1017.9 hPa 1.1 m/s 63.5 mm
 06:34     20:20    Daglengte: 13:46 Woensdag 24 Aug
02:00 12.0° 1017.9 hPa 1.0 m/s 63.5 mm 12.0° 1017.9 hPa 1.0 m/s 63.5 mm
05:00 10.7° 1018.1 hPa 1.2 m/s 63.5 mm 10.7° 1018.1 hPa 1.2 m/s 63.5 mm
08:00 12.8° 1018.5 hPa 1.0 m/s 63.5 mm 12.8° 1018.5 hPa 1.0 m/s 63.5 mm
11:00 19.9° 1017.7 hPa 2.7 m/s 63.5 mm 19.9° 1017.7 hPa 2.7 m/s 63.5 mm
14:00 24.7° 1016.3 hPa 3.2 m/s 63.5 mm 24.7° 1016.3 hPa 3.2 m/s 63.5 mm
17:00 25.4° 1015.5 hPa 2.9 m/s 63.5 mm 25.4° 1015.5 hPa 2.9 m/s 63.5 mm
20:00 18.8° 1016.2 hPa 1.7 m/s 63.5 mm 18.8° 1016.2 hPa 1.7 m/s 63.5 mm
23:00 15.0° 1017.7 hPa 0.9 m/s 63.5 mm 15.0° 1017.7 hPa 0.9 m/s 63.5 mm
 06:35     20:18    Daglengte: 13:43 Donderdag 25 Aug
02:00 13.4° 1017.6 hPa 0.6 m/s 63.5 mm 13.4° 1017.6 hPa 0.6 m/s 63.5 mm
08:00 14.3° 1018.5 hPa 0.6 m/s 63.5 mm 14.3° 1018.5 hPa 0.6 m/s 63.5 mm
14:00 26.0° 1016.3 hPa 1.4 m/s 63.5 mm 26.0° 1016.3 hPa 1.4 m/s 63.5 mm
20:00 20.5° 1015.6 hPa 0.4 m/s 63.5 mm 20.5° 1015.6 hPa 0.4 m/s 63.5 mm
 06:37     20:16    Daglengte: 13:39 Vrijdag 26 Aug
02:00 15.2° 1017.1 hPa 0.5 m/s 63.5 mm 15.2° 1017.1 hPa 0.5 m/s 63.5 mm
08:00 16.4° 1016.9 hPa 0.4 m/s 63.5 mm 16.4° 1016.9 hPa 0.4 m/s 63.5 mm
14:00 27.9° 1014.2 hPa 1.1 m/s 63.5 mm 27.9° 1014.2 hPa 1.1 m/s 63.5 mm
20:00 22.1° 1013.3 hPa 0.7 m/s 63.5 mm 22.1° 1013.3 hPa 0.7 m/s 63.5 mm
 06:38     20:14    Daglengte: 13:36 Zaterdag 27 Aug
02:00 17.2° 1014.8 hPa 1.0 m/s 63.5 mm 17.2° 1014.8 hPa 1.0 m/s 63.5 mm
08:00 17.8° 1016.3 hPa 1.0 m/s 63.7 mm 17.8° 1016.3 hPa 1.0 m/s 63.7 mm
14:00 28.8° 1015.0 hPa 1.1 m/s 63.7 mm 28.8° 1015.0 hPa 1.1 m/s 63.7 mm
20:00 21.3° 1018.6 hPa 1.3 m/s 0.9 mm
 06:39     20:12    Daglengte: 13:33 Zondag 28 Aug
02:00 16.5° 1019.7 hPa 0.5 m/s 0.7 mm
08:00 16.6° 1020.0 hPa 0.4 m/s 0.6 mm
14:00 26.1° 1018.9 hPa 1.2 m/s 0.3 mm
20:00 21.0° 1019.5 hPa 0.8 m/s 0.8 mm
 06:41     20:10    Daglengte: 13:29 Maandag 29 Aug
02:00 16.5° 1020.5 hPa 0.4 m/s 0.4 mm
08:00 16.4° 1020.5 hPa 0.2 m/s 0.5 mm
14:00 25.7° 1019.3 hPa 1.1 m/s 0.7 mm
20:00 20.5° 1019.3 hPa 0.7 m/s 0.7 mm
 06:42     20:08    Daglengte: 13:26 Dinsdag 30 Aug
02:00 15.8° 1020.3 hPa 0.5 m/s 0.5 mm
08:00 15.9° 1020.1 hPa 0.1 m/s 0.3 mm
14:00 25.1° 1018.5 hPa 0.9 m/s 0.5 mm
20:00 19.7° 1018.5 hPa 0.4 m/s 1.4 mm
 06:43     20:06    Daglengte: 13:23 Woensdag 31 Aug
02:00 15.2° 1019.4 hPa 0.3 m/s 0.7 mm
08:00 15.4° 1019.0 hPa 0.2 m/s 0.4 mm
14:00 24.9° 1017.3 hPa 0.9 m/s 0.4 mm
20:00 19.4° 1017.6 hPa 0.5 m/s 1.8 mm
 06:45     20:04    Daglengte: 13:19 Donderdag 01 Sep
02:00 14.7° 1018.9 hPa 0.3 m/s 1.2 mm
08:00 14.4° 1019.0 hPa 0.1 m/s 0.3 mm
14:00 24.0° 1017.5 hPa 1.1 m/s 0.7 mm
20:00 18.5° 1018.0 hPa 0.6 m/s 0.6 mm